• In Uzbekistan
  • List of Countries
  • For 7 days
  • Water Temperature
  • Satellite Maps
  • Weather Map
  • Weather Widgets
  • user-avatar
    Login

    Hourly Weather Ghadamis

    Today, 21 September, Friday

    Time Temperature Precipitation Wind Pressure Humidity
    00:00 +32°C° 0 mm 2 mps 731 mmHg 23%
    01:00 +31°C° 0 mm 2 mps 731 mmHg 24%
    02:00 +31°C° 0 mm 2 mps 731 mmHg 25%
    03:00 +30°C° 0 mm 2 mps 731 mmHg 26%
    04:00 +30°C° 0 mm 2 mps 731 mmHg 27%
    05:00 +29°C° 0 mm 3 mps 731 mmHg 26%
    06:00 +29°C° 0 mm 3 mps 731 mmHg 26%
    07:00 +29°C° 0 mm 3 mps 731 mmHg 25%
    08:00 +32°C° 0 mm 4 mps 732 mmHg 22%
    09:00 +34°C° 0 mm 4 mps 732 mmHg 19%
    10:00 +36°C° 0 mm 5 mps 732 mmHg 16%
    11:00 +37°C° 0 mm 4 mps 732 mmHg 15%
    12:00 +38°C° 0 mm 3 mps 732 mmHg 15%
    13:00 +38°C° 0 mm 2 mps 731 mmHg 15%
    14:00 +38°C° 0 mm 2 mps 731 mmHg 15%
    15:00 +37°C° 0 mm 1 mps 731 mmHg 15%
    16:00 +37°C° 0 mm 1 mps 730 mmHg 15%
    17:00 +37°C° 0 mm 1 mps 730 mmHg 16%
    18:00 +36°C° 0 mm 1 mps 731 mmHg 16%
    19:00 +36°C° 0 mm 2 mps 731 mmHg 17%
    20:00 +36°C° 0 mm 2 mps 731 mmHg 18%
    21:00 +35°C° 0 mm 3 mps 731 mmHg 19%
    22:00 +35°C° 0 mm 3 mps 732 mmHg 19%
    23:00 +34°C° 0 mm 3 mps 732 mmHg 21%

    Tomorrow, 22 September, Saturday

    Time Temperature Precipitation Wind Pressure Humidity
    00:00 +34°C° 0 mm 3 mps 732 mmHg 22%
    01:00 +33°C° 0 mm 3 mps 732 mmHg 23%
    02:00 +31°C° 0 mm 3 mps 732 mmHg 24%
    03:00 +31°C° 0 mm 3 mps 732 mmHg 25%
    04:00 +30°C° 0 mm 3 mps 732 mmHg 26%
    05:00 +30°C° 0 mm 3 mps 732 mmHg 26%
    06:00 +30°C° 0 mm 3 mps 732 mmHg 26%
    07:00 +30°C° 0 mm 3 mps 732 mmHg 26%
    08:00 +33°C° 0 mm 3 mps 733 mmHg 23%
    09:00 +35°C° 0 mm 4 mps 733 mmHg 20%
    10:00 +36°C° 0 mm 4 mps 734 mmHg 17%
    11:00 +37°C° 0 mm 4 mps 733 mmHg 17%
    12:00 +38°C° 0 mm 3 mps 733 mmHg 16%
    13:00 +39°C° 0 mm 3 mps 733 mmHg 15%
    14:00 +39°C° 0 mm 3 mps 733 mmHg 15%
    15:00 +39°C° 0 mm 3 mps 732 mmHg 14%
    16:00 +40°C° 0 mm 4 mps 732 mmHg 14%
    17:00 +38°C° 0 mm 4 mps 732 mmHg 15%
    18:00 +37°C° 0 mm 4 mps 732 mmHg 16%
    19:00 +36°C° 0 mm 4 mps 733 mmHg 17%
    20:00 +36°C° 0 mm 5 mps 733 mmHg 21%
    21:00 +35°C° 0 mm 6 mps 734 mmHg 24%
    22:00 +34°C° 0 mm 7 mps 734 mmHg 27%
    23:00 +33°C° 0 mm 6 mps 734 mmHg 32%

    Day after tomorrow, 23 September, Sunday

    Time Temperature Precipitation Wind Pressure Humidity
    00:00 +32°C° 0 mm 6 mps 734 mmHg 36%
    01:00 +30°C° 0 mm 6 mps 734 mmHg 41%
    02:00 +30°C° 0 mm 6 mps 734 mmHg 42%
    03:00 +29°C° 0 mm 6 mps 734 mmHg 44%
    04:00 +29°C° 0 mm 5 mps 734 mmHg 45%
    05:00 +29°C° 0 mm 5 mps 734 mmHg 44%
    06:00 +29°C° 0 mm 4 mps 734 mmHg 44%
    07:00 +29°C° 0 mm 4 mps 734 mmHg 43%
    08:00 +32°C° 0 mm 4 mps 735 mmHg 36%
    09:00 +34°C° 0 mm 5 mps 735 mmHg 29%
    10:00 +36°C° 0 mm 5 mps 736 mmHg 22%
    11:00 +37°C° 0 mm 4 mps 735 mmHg 20%
    12:00 +38°C° 0 mm 4 mps 735 mmHg 17%
    13:00 +39°C° 0 mm 3 mps 735 mmHg 15%
    14:00 +39°C° 0 mm 3 mps 735 mmHg 15%
    15:00 +39°C° 0 mm 3 mps 734 mmHg 14%
    16:00 +40°C° 0 mm 2 mps 734 mmHg 14%
    17:00 +39°C° 0 mm 2 mps 734 mmHg 15%
    18:00 +38°C° 0 mm 2 mps 734 mmHg 16%
    19:00 +37°C° 0 mm 2 mps 734 mmHg 17%
    20:00 +36°C° 0 mm 3 mps 735 mmHg 18%
    21:00 +36°C° 0 mm 3 mps 735 mmHg 20%
    22:00 +35°C° 0 mm 3 mps 736 mmHg 21%
    23:00 +34°C° 0 mm 3 mps 735 mmHg 25%

    24 September, Monday

    Time Temperature Precipitation Wind Pressure Humidity
    00:00 +33°C° 0 mm 4 mps 735 mmHg 29%
    01:00 +33°C° 0 mm 4 mps 735 mmHg 32%
    02:00 +32°C° 0 mm 4 mps 735 mmHg 35%
    03:00 +30°C° 0 mm 4 mps 734 mmHg 38%
    04:00 +30°C° 0 mm 3 mps 734 mmHg 41%
    05:00 +30°C° 0 mm 3 mps 734 mmHg 41%
    06:00 +29°C° 0 mm 3 mps 734 mmHg 41%
    07:00 +29°C° 0 mm 3 mps 734 mmHg 41%
    08:00 +31°C° 0 mm 3 mps 735 mmHg 34%
    09:00 +34°C° 0 mm 4 mps 735 mmHg 27%
    10:00 +37°C° 0 mm 4 mps 735 mmHg 20%
    11:00 +38°C° 0 mm 3 mps 735 mmHg 18%
    12:00 +38°C° 0 mm 3 mps 734 mmHg 17%
    13:00 +39°C° 0 mm 2 mps 734 mmHg 16%
    14:00 +40°C° 0 mm 2 mps 734 mmHg 15%
    15:00 +40°C° 0 mm 1 mps 733 mmHg 15%
    16:00 +40°C° 0 mm 1 mps 733 mmHg 15%
    17:00 +39°C° 0 mm 1 mps 733 mmHg 16%
    18:00 +38°C° 0 mm 2 mps 733 mmHg 17%
    19:00 +38°C° 0 mm 2 mps 733 mmHg 17%
    20:00 +37°C° 0 mm 3 mps 733 mmHg 20%
    21:00 +36°C° 0 mm 4 mps 733 mmHg 22%
    22:00 +35°C° 0 mm 6 mps 734 mmHg 25%
    23:00 +34°C° 0 mm 6 mps 733 mmHg 28%

    25 September, Tuesday

    Time Temperature Precipitation Wind Pressure Humidity
    00:00 +33°C° 0 mm 6 mps 733 mmHg 32%
    01:00 +32°C° 0 mm 6 mps 733 mmHg 36%
    02:00 +32°C° 0 mm 5 mps 733 mmHg 38%
    03:00 +30°C° 0 mm 5 mps 733 mmHg 41%
    04:00 +30°C° 0 mm 4 mps 733 mmHg 43%
    05:00 +29°C° 0 mm 4 mps 733 mmHg 45%
    06:00 +29°C° 0 mm 4 mps 733 mmHg 46%
    07:00 +29°C° 0 mm 4 mps 733 mmHg 48%
    08:00 +32°C° 0 mm 4 mps 733 mmHg 42%
    09:00 +33°C° 0 mm 5 mps 734 mmHg 36%
    10:00 +35°C° 0 mm 5 mps 734 mmHg 30%
    11:00 +36°C° 0 mm 4 mps 734 mmHg 27%
    12:00 +37°C° 0 mm 4 mps 733 mmHg 24%
    13:00 +38°C° 0 mm 3 mps 733 mmHg 21%
    14:00 +38°C° 0 mm 4 mps 732 mmHg 20%
    15:00 +40°C° 0 mm 4 mps 732 mmHg 19%
    16:00 +40°C° 0 mm 4 mps 732 mmHg 18%
    17:00 +38°C° 0 mm 4 mps 732 mmHg 19%
    18:00 +37°C° 0 mm 5 mps 732 mmHg 20%
    19:00 +36°C° 0 mm 5 mps 732 mmHg 22%
    20:00 +35°C° 0 mm 6 mps 732 mmHg 25%
    21:00 +34°C° 0 mm 6 mps 733 mmHg 28%
    22:00 +33°C° 0 mm 7 mps 733 mmHg 32%
    23:00 +32°C° 0 mm 7 mps 733 mmHg 37%

    26 September, Wednesday

    Time Temperature Precipitation Wind Pressure Humidity
    00:00 +30°C° 0 mm 7 mps 733 mmHg 41%
    01:00 +29°C° 0 mm 7 mps 733 mmHg 46%
    02:00 +29°C° 0 mm 6 mps 733 mmHg 49%
    03:00 +28°C° 0 mm 6 mps 732 mmHg 53%
    04:00 +28°C° 0 mm 6 mps 732 mmHg 57%
    05:00 +27°C° 0 mm 6 mps 733 mmHg 59%
    06:00 +27°C° 0 mm 6 mps 733 mmHg 61%
    07:00 +27°C° 0 mm 5 mps 733 mmHg 63%
    08:00 +28°C° 0 mm 6 mps 733 mmHg 57%
    09:00 +30°C° 0 mm 6 mps 733 mmHg 52%
    10:00 +32°C° 0 mm 6 mps 734 mmHg 47%
    11:00 +33°C° 0 mm 6 mps 733 mmHg 41%
    12:00 +34°C° 0 mm 5 mps 733 mmHg 36%
    13:00 +36°C° 0 mm 5 mps 733 mmHg 30%
    14:00 +36°C° 0 mm 5 mps 732 mmHg 29%
    15:00 +36°C° 0 mm 5 mps 732 mmHg 27%
    16:00 +36°C° 0 mm 5 mps 732 mmHg 25%
    17:00 +35°C° 0 mm 5 mps 732 mmHg 27%
    18:00 +34°C° 0 mm 5 mps 732 mmHg 28%
    19:00 +34°C° 0 mm 6 mps 733 mmHg 30%
    20:00 +33°C° 0 mm 7 mps 733 mmHg 36%
    21:00 +32°C° 0 mm 8 mps 733 mmHg 42%
    22:00 +31°C° 0 mm 9 mps 733 mmHg 47%
    23:00 +29°C° 0 mm 8 mps 733 mmHg 49%
    Show more